Vorticity
7 8 3 4 4 5 6 6 11 19 8 10 11 6 3 2 3 7 6 12 22 31 13 10 10 11 14 11 12 10 10 9 7 8 8 6 5 8 13 11 0 5 3 4
6 9 6 3 4 4 5 6 12 16 10 11 8 6 6 2 5 8 7 17 33 23 13 12 15 17 11 11 10 11 12 11 9 8 9 8 6 7 8 8 7 7 8 8
5 9 7 2 4 3 4 5 7 17 8 12 8 6 4 2 7 6 10 14 30 24 11 9 10 10 9 9 10 10 11 9 8 8 7 8 7 9 9 8 7 8 8 9
3 9 6 3 4 3 2 2 5 9 16 13 10 6 3 2 6 6 10 9 16 31 17 8 8 7 8 6 6 5 5 4 6 7 8 8 8 10 9 9 9 10 11 8
2 9 4 5 3 3 -1 2 3 6 11 12 14 5 3 2 5 6 7 5 19 14 23 22 12 9 9 8 6 9 6 8 9 10 11 11 11 10 9 10 10 11 15 17
4 6 6 8 2 3 1 -1 3 3 7 14 7 10 3 3 4 5 6 1 7 14 16 19 21 18 16 13 11 8 10 11 9 9 7 6 7 12 16 14 13 12 9 15
4 4 8 7 3 5 -1 -0 0 2 2 9 17 13 5 4 4 3 4 7 2 3 1 7 10 11 9 9 9 9 7 7 4 5 6 8 9 8 6 9 11 6 8 6
6 3 8 6 6 2 4 -1 -1 1 2 3 11 14 10 5 4 3 5 4 2 -1 1 5 6 4 6 6 7 7 7 10 10 11 11 9 5 4 4 10 4 5 6 10
4 5 3 8 6 3 4 3 0 -0 2 4 3 12 12 5 5 5 1 3 4 7 6 4 3 -1 4 8 10 9 9 6 6 7 8 7 9 9 8 5 7 8 6 5
9 6 5 6 6 8 2 3 0 3 -0 -1 4 4 15 16 5 3 4 4 5 3 6 4 1 7 7 6 7 13 11 9 7 6 6 5 5 10 5 5 7 7 6 8
10 4 4 3 9 7 5 4 2 -1 -2 1 3 2 6 12 14 6 3 0 6 6 5 0 6 8 4 4 8 8 5 9 8 5 3 3 3 5 2 4 3 8 6 7
16 9 5 5 5 8 6 5 3 2 0 0 1 3 3 6 12 11 6 4 2 5 1 5 8 -0 7 6 4 7 9 3 1 3 3 5 7 6 3 4 4 6 4 7
12 17 9 6 4 5 7 8 5 4 3 2 -0 7 3 1 6 14 11 5 6 2 3 5 6 3 6 7 8 5 5 6 8 5 5 5 5 4 5 4 5 7 7 6
11 10 14 9 6 5 4 10 6 4 2 3 2 2 -2 4 2 7 15 11 4 7 4 4 7 8 5 6 0 5 5 5 4 4 6 7 7 7 9 7 9 6 6 7
6 10 10 14 11 5 6 2 9 7 6 4 -1 1 -3 6 3 3 8 16 11 4 5 7 8 7 2 4 9 3 2 6 5 3 4 4 4 5 7 6 7 6 8 8
5 9 11 11 10 13 6 9 5 7 10 5 4 3 4 1 6 2 4 8 15 11 6 4 4 9 8 9 7 7 8 6 4 5 5 5 7 8 8 9 9 10 9 7
8 5 9 13 10 9 12 9 7 8 7 13 6 7 3 2 6 6 2 5 7 12 12 9 5 3 4 5 5 6 7 7 8 7 6 6 4 5 7 6 6 7 9 8
17 6 8 11 16 11 11 9 6 13 7 14 9 9 7 9 7 9 4 2 4 6 9 12 12 6 4 3 3 4 5 7 7 6 5 6 6 5 5 7 7 8 9 8
17 18 7 4 10 22 7 17 9 8 10 11 9 12 8 7 10 5 9 2 3 3 6 7 11 14 9 6 5 4 4 4 5 5 6 6 5 6 7 7 9 8 9 7
17 18 16 14 3 1 6 16 15 11 6 5 12 12 10 7 6 8 8 5 2 3 3 4 7 11 12 11 9 8 7 7 7 6 5 5 6 4 6 8 9 9 9 7
15 14 14 14 15 17 3 9 16 15 13 9 5 9 8 8 7 8 8 7 4 2 3 3 4 6 10 10 11 11 11 11 11 11 11 9 8 6 7 8 9 10 11 8
5 12 20 17 13 17 12 8 5 8 16 16 7 10 10 8 9 8 7 8 7 5 2 3 3 3 5 7 9 10 8 9 11 13 14 13 12 10 9 8 9 10 11 10
3 11 9 16 19 12 10 9 8 25 2 11 11 8 6 10 11 9 9 9 9 6 5 3 3 2 3 4 4 6 8 9 8 8 11 13 14 12 10 9 10 11 12 10
8 5 4 11 19 17 14 11 5 6 31 -2 15 15 8 7 9 7 6 6 9 8 8 6 3 3 2 2 3 3 5 6 7 8 8 9 11 11 10 10 10 11 13 10
12 9 8 5 13 14 13 10 9 3 5 21 2 10 11 8 8 8 8 5 6 8 9 10 7 5 4 3 2 3 3 3 4 5 6 9 9 10 9 7 9 10 13 12
19 14 4 5 4 7 16 18 13 10 6 -1 21 3 10 3 5 9 8 6 5 6 7 8 9 9 7 4 4 4 4 3 3 3 3 5 7 8 9 10 8 10 9 15
Height
5878 5878 5877 5877 5875 5873 5870 5866 5862 5857 5854 5851 5849 5847 5844 5839 5834 5826 5816 5805 5793 5784 5779 5776 5772 5767 5763 5760 5756 5752 5749 5746 5742 5737 5732 5727 5721 5715 5710 5705 5698 5691 5684 5676
5876 5876 5876 5876 5874 5873 5870 5866 5862 5858 5854 5851 5848 5846 5843 5839 5833 5825 5816 5805 5792 5784 5780 5776 5772 5768 5764 5761 5757 5753 5750 5746 5742 5737 5732 5726 5721 5715 5710 5703 5696 5688 5681 5672
5873 5875 5875 5874 5873 5872 5869 5865 5862 5858 5854 5850 5848 5846 5842 5839 5833 5825 5816 5804 5793 5785 5781 5777 5773 5770 5767 5763 5758 5755 5751 5747 5742 5737 5732 5726 5719 5714 5707 5700 5693 5686 5678 5670
5871 5872 5872 5873 5872 5871 5869 5865 5861 5858 5854 5851 5848 5846 5842 5838 5832 5825 5816 5806 5796 5787 5783 5778 5775 5772 5769 5765 5760 5757 5752 5747 5743 5737 5731 5725 5718 5712 5705 5698 5691 5683 5675 5666
5869 5868 5870 5870 5871 5869 5868 5865 5861 5858 5854 5850 5848 5845 5841 5836 5831 5825 5818 5810 5801 5791 5785 5780 5777 5773 5770 5766 5761 5757 5752 5747 5742 5736 5730 5723 5717 5709 5703 5696 5689 5681 5673 5664
5864 5865 5866 5867 5868 5868 5866 5865 5861 5857 5854 5851 5847 5844 5841 5836 5831 5826 5820 5813 5806 5798 5790 5785 5780 5775 5771 5767 5762 5758 5753 5747 5742 5737 5729 5723 5717 5710 5703 5696 5688 5681 5672 5664
5860 5862 5863 5864 5865 5865 5864 5863 5861 5858 5854 5851 5847 5844 5840 5836 5831 5827 5822 5816 5810 5804 5797 5791 5785 5779 5774 5768 5763 5758 5753 5748 5742 5737 5730 5724 5718 5711 5704 5696 5689 5681 5672 5662
5856 5859 5859 5860 5861 5862 5862 5860 5859 5856 5854 5850 5846 5843 5840 5836 5832 5828 5823 5818 5813 5807 5802 5795 5789 5783 5777 5770 5765 5760 5754 5749 5743 5737 5731 5725 5718 5712 5705 5697 5689 5681 5673 5663
5850 5853 5854 5855 5856 5858 5858 5858 5857 5855 5853 5850 5846 5843 5839 5836 5832 5828 5824 5819 5814 5809 5804 5798 5793 5787 5781 5774 5769 5763 5756 5750 5744 5738 5732 5725 5720 5713 5705 5698 5690 5682 5673 5662
5846 5848 5849 5850 5851 5853 5853 5855 5854 5852 5851 5848 5845 5842 5838 5834 5831 5827 5823 5819 5815 5810 5805 5800 5794 5789 5783 5777 5771 5764 5758 5751 5745 5739 5733 5727 5720 5713 5705 5698 5690 5682 5673 5663
5840 5842 5845 5846 5846 5847 5848 5848 5850 5849 5848 5845 5843 5841 5837 5833 5830 5827 5822 5818 5814 5810 5805 5800 5795 5790 5784 5778 5772 5766 5760 5753 5747 5741 5735 5729 5722 5715 5707 5699 5690 5682 5672 5662
5833 5835 5838 5840 5840 5841 5842 5842 5843 5844 5844 5842 5840 5840 5835 5831 5828 5825 5821 5817 5813 5808 5804 5800 5795 5790 5784 5780 5774 5767 5761 5755 5748 5742 5736 5729 5723 5716 5708 5699 5691 5682 5672 5662
5827 5829 5830 5833 5835 5834 5835 5836 5836 5837 5839 5839 5837 5836 5832 5829 5825 5822 5819 5815 5812 5807 5802 5798 5794 5789 5783 5779 5773 5768 5761 5755 5749 5742 5736 5729 5723 5716 5708 5699 5690 5681 5672 5662
5821 5822 5824 5826 5827 5828 5829 5829 5829 5829 5832 5832 5834 5831 5828 5827 5823 5819 5816 5813 5809 5805 5801 5797 5792 5788 5783 5777 5772 5767 5761 5755 5749 5742 5736 5729 5722 5715 5707 5699 5690 5681 5671 5661
5813 5815 5816 5817 5817 5819 5821 5822 5822 5823 5824 5824 5827 5827 5820 5822 5820 5817 5813 5810 5806 5803 5799 5795 5791 5786 5782 5777 5772 5767 5761 5755 5749 5742 5735 5728 5721 5714 5707 5698 5689 5680 5672 5662
5805 5807 5808 5810 5809 5810 5811 5814 5815 5816 5816 5816 5817 5821 5815 5816 5815 5813 5810 5806 5803 5800 5796 5793 5789 5784 5780 5775 5771 5766 5760 5754 5748 5741 5734 5728 5721 5714 5706 5698 5689 5680 5671 5663
5796 5797 5798 5800 5801 5800 5802 5808 5806 5809 5808 5807 5808 5810 5810 5810 5809 5808 5806 5803 5800 5796 5792 5789 5786 5782 5778 5773 5769 5764 5758 5752 5746 5740 5733 5727 5720 5713 5705 5698 5690 5680 5671 5663
5788 5789 5789 5789 5791 5790 5795 5799 5797 5799 5800 5797 5800 5801 5801 5803 5802 5801 5800 5799 5796 5793 5789 5785 5782 5779 5775 5771 5767 5762 5756 5751 5745 5738 5732 5726 5719 5712 5704 5697 5688 5680 5671 5663
5779 5779 5779 5777 5781 5782 5786 5788 5789 5790 5792 5789 5790 5792 5792 5794 5795 5792 5794 5793 5792 5789 5786 5782 5778 5775 5771 5767 5764 5759 5754 5748 5743 5737 5730 5724 5717 5711 5703 5696 5688 5679 5672 5662
5770 5769 5769 5770 5770 5770 5777 5778 5779 5779 5782 5780 5780 5782 5783 5785 5786 5787 5786 5786 5785 5784 5781 5778 5775 5771 5768 5764 5760 5755 5751 5746 5740 5734 5728 5722 5715 5709 5702 5695 5687 5679 5671 5662
5759 5758 5759 5759 5757 5760 5768 5767 5768 5769 5772 5769 5771 5772 5774 5776 5778 5778 5779 5779 5778 5777 5776 5774 5771 5767 5764 5760 5756 5752 5747 5742 5737 5731 5725 5719 5713 5707 5700 5693 5686 5678 5670 5662
5752 5749 5750 5749 5748 5751 5755 5755 5757 5755 5755 5758 5760 5764 5767 5767 5769 5770 5771 5771 5771 5771 5770 5768 5766 5763 5760 5757 5753 5749 5744 5740 5734 5729 5723 5717 5711 5704 5698 5691 5684 5677 5669 5661
5742 5741 5740 5739 5740 5740 5741 5742 5743 5744 5745 5748 5751 5754 5756 5758 5759 5760 5762 5762 5763 5762 5762 5761 5760 5758 5756 5753 5749 5746 5742 5737 5732 5727 5721 5714 5708 5702 5696 5690 5683 5675 5668 5660
5733 5731 5728 5727 5730 5731 5731 5730 5731 5733 5737 5738 5741 5744 5746 5748 5749 5750 5752 5753 5753 5753 5754 5754 5753 5752 5750 5748 5744 5742 5738 5734 5730 5725 5719 5713 5707 5701 5694 5688 5681 5674 5667 5660
5721 5721 5719 5718 5718 5718 5718 5717 5719 5721 5725 5727 5729 5732 5734 5737 5739 5740 5741 5742 5743 5744 5745 5746 5744 5744 5743 5741 5739 5737 5733 5730 5726 5722 5717 5711 5705 5699 5693 5686 5680 5673 5666 5659
5709 5709 5706 5706 5704 5705 5708 5708 5709 5710 5711 5713 5715 5718 5721 5724 5726 5729 5731 5732 5733 5734 5735 5735 5736 5736 5735 5734 5733 5731 5728 5725 5722 5718 5714 5709 5703 5698 5691 5685 5679 5672 5665 5659